Regional Weather Roundup
Issued by NWS Wakefield, VA

Home | Current Version | Previous Version | Graphics & Text | Print | Product List | Glossary On
Versions: 1 2 3 4 5 6 7 8 9 10 11 12 13 14 15 16 17 18 19 20 21 22 23 24 25 26 27 28 29 30 31 32 33 34 35 36 37 38 39 40 41 42 43 44 45 46 47 48 49 50
000
ASUS41 KAKQ 192310
RWRAKQ

REGIONAL WEATHER ROUNDUP
NATIONAL WEATHER SERVICE WAKEFIELD VA
700 PM EDT TUE AUG 19 2014

Note: "fair" indicates few or no clouds below 12,000 feet with no
significant weather and/or obstructions to visibility. * = Denotes
station may not report precipitation (e.g., rain,snow,etc.),
thunder or fog.

VAZ042-051-052>054-056-200000-
NORTHERN VIRGINIA

CITY           SKY/WX    TMP DP  RH WIND       PRES   REMARKS
WASH NATIONAL  PTSUNNY   83  65  54 E8        29.86S
DULLES         PTSUNNY   79  66  64 SE7       29.86S
FORT BELVOIR   MOSUNNY   80  68  67 VRB2      29.86S
QUANTICO       PTSUNNY   82  68  62 CALM      29.86S
FREDERICKSBRG* MOSUNNY   81  70  69 E7        29.84F
STAFFORD*      SUNNY     79  71  74 SE3       29.90R
WARRENTON      SUNNY     78  75  91 CALM      29.86S
CULPEPER*      MOSUNNY  N/A N/A N/A CALM      29.86S
MANASSAS*      SUNNY     81  70  69 SE3       29.86R
LEESBURG*      PTSUNNY   81  70  69 SE6       29.87S
WINCHESTER     PTSUNNY   79  68  69 SE5       29.87S
$$

VAZ048-049-060>072-079>083-200000-
CENTRAL AND SOUTH CENTRAL VIRGINIA...AND NORTH CENTRAL NORTH CAROLINA

CITY           SKY/WX    TMP DP  RH WIND       PRES   REMARKS
RICHMOND       PTSUNNY   80  70  71 NE7       29.85S
CHESTERFIELD*  CLOUDY   N/A N/A N/A NE6       29.85F
HANOVER        PTSUNNY   76  73  91 NE3       29.86F
TAPPAHANNOCK*  PTCLDY    78  70  75 E3        29.86S
CHARLOTTSVILLE MOSUNNY   79  68  69 E3        29.86S
ORANGE*        MOSUNNY   77  68  73 NE3       29.88S
LOUISA*        SUNNY     77  72  83 SE3       29.86S
FARMVILLE*     MOSUNNY   84  70  61 E5        29.83S
SOUTH HILL*    PTSUNNY   82  73  74 CALM      29.88F
ROANOKE RAPIDS MOCLDY    82  72  69 N3        29.82S
RALEIGH        PTSUNNY   81  71  71 CALM      29.84R
$$

VAZ088>098-200000-
SOUTHEAST VIRGINIA

CITY           SKY/WX    TMP DP  RH WIND       PRES   REMARKS
NORFOLK        CLOUDY    78  71  79 NE12      29.83R
VIRGINIA BEACH MOCLDY    77  73  87 NE10      29.82R
NORFOLK NAVAL  MOCLDY    79  73  82 NE12      29.85R
WEST POINT*    CLOUDY    79  72  78 NE6       29.86S
NEWPORT NEWS   MOCLDY    80  73  79 NE7       29.84S
LANGLEY AFB    MOCLDY    77  77 100 NE14      29.83R
FORT EUSTIS    MOCLDY    77  77 100 NE7       29.83R
WILLIAMSBURG*  MOCLDY    79  75  89 CALM      29.85S
FRANKLIN*      PTCLDY    79  72  78 N5        29.83R
WAKEFIELD      CLOUDY    78  71  79 NE6       29.84R
$$

VAZ020-022-025-037-045-200000-
WESTERN AND SOUTHWEST VIRGINIA

CITY           SKY/WX    TMP DP  RH WIND       PRES   REMARKS
STAUNTON*      CLOUDY    77  69  77 SW5       29.91R
HOT SPRINGS VA NOT AVBL
LYNCHBURG      MOSUNNY   81  68  64 E5        29.88S
DANVILLE       MOSUNNY   83  71  67 CALM      29.85S
MARTINSVILLE   SUNNY     75  74  96 CALM      29.89R
ROANOKE        MOSUNNY   78  69  73 W3        29.90S
BLACKSBURG     MOSUNNY   75  72  88 CALM      29.95S
DUBLIN*        PTSUNNY   73  71  93 W5        29.95S
MARION*        MOSUNNY   75  68  79 W6        29.98S
HILLSVILLE*    PTSUNNY   75  67  77 CALM      29.97R
RICHLANDS*     CLEAR     77  69  76 CALM      29.97S
WISE*          MOSUNNY   77  64  65 S3        29.98S
ABINGDON*      PTSUNNY   77  70  79 CALM      29.94S
$$

MDZ021>025-VAZ099-100-200000-
SOUTHERN MARYLAND AND THE DELMARVA PENINSULA

CITY           SKY/WX    TMP DP  RH WIND       PRES   REMARKS
PATUXENT RIVER MOCLDY    78  70  76 SE6       29.85S
BAY BRIDGE APT   N/A     79  61  53 SE6       29.87S
LEONARDTOWN    PTCLDY    77  68  73 CALM      29.88R
DOVER          CLEAR     75  67  75 SE6       29.87R
GEORGETOWN     CLEAR     77  62  59 E10       29.88S
EASTON         PTCLDY    81  66  61 E7        29.90S
CAMBRIDGE      CLEAR     79  64  61 E3        29.86R
SALISBURY      CLEAR     77  65  66 E6        29.86S
OCEAN CITY     CLEAR     75  66  73 E9        29.87R
WALLOPS ISLAND MOCLDY    76  68  76 E15       29.87R
ACCOMACK*      PTCLDY    73  68  83 E10G18    29.85S
$$

NCZ012>017-030>032-200000-
EASTERN NORTH CAROLINA

CITY           SKY/WX    TMP DP  RH WIND       PRES   REMARKS
ELIZABETH CITY CLOUDY    79  74  84 NE8       29.81S
AHOSKIE*       PTCLDY    79  72  78 NE5       29.83R
EDENTON*       PTCLDY    82  73  73 NW3       29.81S
CURRITUCK*     MOCLDY    81  72  73 N7        29.82S
KILL DEVIL HLS PTCLDY    80  73  80 CALM      29.80S
MANTEO         CLOUDY    81  73  78 CALM      29.81S
CAPE HATTERAS  PTCLDY    83  74  74 NW9       29.81S
GOLDSBORO      MOSUNNY   84  75  74 N3        29.81R
WASHINGTON     CLEAR     82  73  74 CALM      29.81F
GREENVILLE     PTCLDY    82  73  74 CALM      29.84S
NEW BERN       CLEAR     85  72  65 N3        29.82S
WILMINGTON     CLOUDY    84  74  71 N5        29.81R
$$

VAZ048-200000-
ELSEWHERE

CITY           SKY/WX    TMP DP  RH WIND       PRES   REMARKS
HARRISBURG PA  CLOUDY    78  70  76 CALM      29.86S
BALTIMORE      MOCLDY    79  63  57 E7        29.86S
ANNAPOLIS      CLEAR     80  65  59 E3        29.86S
ANDREWS AFB    CLEAR     78  67  67 E6        29.87S
WILMINGTON DE  PTCLDY    79  66  64 S12       29.88R
PHILADELPHIA   MOCLDY    80  65  59 SE5       29.87R
WILDWOOD NJ*   CLEAR     75  63  64 E9        29.89S
ATLANTIC CITY  CLEAR     75  63  66 E7        29.89R
HENDERSON NC   SUNNY     82  69  66 CALM      29.84S
GREENSBORO     PTSUNNY   82  68  62 NE7       29.85S
ROCKY MOUNT    MOSUNNY   85  73  67 NE3       29.82S
FAYETTEVILLE   CLOUDY    77  72  84 SW7       29.84S
CHARLOTTE      MOSUNNY   79  70  74 SW3       29.86S
$$

VAZ100-200000-
MARINE

STATION/POSITION TIME  TEMP    WIND        PRES    WAVE   SWELL
                       AIR SEA DIR/SP/G            HT/PER HT/PER
                 (UTC) (F)     (DEG/KT/KT) (MB)    (FT/S) (FT/S)
44066 TX TWR #4  2300   73 75   80/ 10/ 12 1012.1F   2/ 9   2/ 9
CAPE MAY NJ      2300   76 80   80/  6/ 10 1011.3S
LEWES DE         2300   75 76  100/  9/ 10 1011.3F
15NM E FENWICK I 2300   75 75              1010.9R   3/ 6
OCEAN-CITY-INLET 2300   75 75   80/  7/ 11 1011.0R
WACHAPREAGUE VA  2300   76 80   40/ 15/ 18 1010.6S
THOMAS POINT MD  2300   79 78   80/ 10/ 11 1011.7S
GOOSES REEF MD   2300   80     120/  8/ 12 1011.3S
COVE POINT MD    2300   79     120/  7/  9 1010.8S
SOLOMONS ISLAND  2300      80                N/A
BISHOPS HEAD MD  2300   78 80   90/ 10/ 12 1010.4S
PINEY POINT MD   2300          110/ 12/ 13   N/A
POTOMAC MD       2300   78     110/ 10/ 12 1010.0S
CAMBRIDGE MD     2300   79 78   80/ 10/ 12 1010.7S
LEWISETTA VA     2300   78 80  100/ 11/ 13 1010.5R
RAPPAHANNOCK LGT 2300           50/ 15/ 17 1011.1R
STINGRAY PT      2300   78      80/ 14/ 16 1011.3R
YORK RVR RNG VA  2300   77      70/ 15/ 17 1009.8R
YORKTOWN VA      2300   77 80   50/ 11/ 13 1010.1R
JAMESTOWN VA     2300   76      30/  4/  6   N/A
DOMINION TERM VA 2300   78      40/  5/ 10 1010.0F
KIPTOPEKE VA     2300      82   60/  9/ 13   N/A
CHES BAY BRIDGE  2300   77 76   20/ 14/ 15 1009.3R
CAPE HENRY VA    2300   76      30/ 13/ 14 1008.6F
CHESAPEAKE LGHT  2200   76      40/ 12/ 13 1010.2R
WILLOUBY STN VA  2300   77      40/ 11/ 12 1008.9S
S CRANEY ISL VA  2300           10/ 11/ 14 1009.6R
CAPE HENRY BUOY  2300      79                N/A     3/ 6
1ST LANDING BUOY 2300   77      30/ 12/ 14 1009.6S
CAPE CHARLES BUO 2300      77                N/A     3/ 6   2/ 6
OFFSHORE WE BUOY 2300      77                N/A     3/ 6   2/ 6
64NM E OF VA BCH 2300   78 79  340/  4/  6 1009.2R   3/ 7   3/ 7
DUCK PIER NC     2300   79 78  360/  5/  6 1008.5S
44056 DUCK FRF   2300                        N/A     1/10
OREGON INLET NC  2300   81 82  310/  9/ 11 1009.1S
HATTERAS NC      2300   83 83  290/ 11/ 12 1009.8R
DIAMOND SHLS NC  2300   80     230/ 10/ 12 1009.2S   4/ 6   3/ 6
CAPE LOOKOUT NC  2200   83     240/ 12/ 16 1009.6R
$$



USA.gov is the U.S. government's official web portal to all federal, state and local government web resources and services.